Location: Keewatin
(47.4004°N, 93.0827°W)
Time: 23:54:12
(UTC+00:00)

ZACube-1 - Pass Details

Date: 08 March 2020
Orbit: 584 x 667 km, 97.6° (Epoch: 01 April)

Event Time Altitude Azimuth Distance (km) Brightness Sun altitude
Rises 11:07:38 0° 27° (NNE) 2,992 ? -16.1°
Reaches altitude 10° 11:10:33 10° 47° (NE) 2,062 ? -15.6°
Maximum altitude 11:13:35 18° 90° (E) 1,590 ? -15.1°
Drops below altitude 10° 11:16:35 10° 133° (SE) 2,018 ? -14.6°
Sets 11:19:23 0° 152° (SSE) 2,902 ? -14.1°
